This is the latest recevied weather packets stored in our database for station/object YD2CLX-11. If no packets are shown the sender has not sent any weather packets the latest 10 day(s).
| Time | Temp. | Humidity | Pressure | Rain* | Wind** | Luminosity | Snow |
|---|---|---|---|---|---|---|---|
| 1788243855 | 35° C | 41% | 997.5 hPa | - | - | - | - |
| 1788243254 | 35.56° C | 40% | 997.5 hPa | - | - | - | - |
| 1788242653 | 35.56° C | 38% | 997.6 hPa | - | - | - | - |
| 1788242052 | 36.67° C | 36% | 997.7 hPa | - | - | - | - |
| 1788241452 | 36.11° C | 38% | 997.8 hPa | - | - | - | - |
| 1788240850 | 36.11° C | 37% | 998.1 hPa | - | - | - | - |
| 1788240249 | 36.11° C | 37% | 998.2 hPa | - | - | - | - |
| 1788239648 | 36.67° C | 35% | 998.5 hPa | - | - | - | - |
| 1788239046 | 36.11° C | 39% | 998.7 hPa | - | - | - | - |
| 1788238445 | 35° C | 41% | 998.9 hPa | - | - | - | - |
| 1788237844 | 36.11° C | 40% | 999 hPa | - | - | - | - |
| 1788237242 | 35.56° C | 41% | 999.2 hPa | - | - | - | - |
| 1788236640 | 35° C | 42% | 999.3 hPa | - | - | - | - |
| 1788236040 | 35.56° C | 40% | 999.5 hPa | - | - | - | - |
| 1788235439 | 35.56° C | 42% | 999.7 hPa | - | - | - | - |
| 1788234838 | 34.44° C | 43% | 999.9 hPa | - | - | - | - |
| 1788234236 | 36.11° C | 40% | 1000 hPa | - | - | - | - |
| 1788233635 | 34.44° C | 41% | 1000.2 hPa | - | - | - | - |
| 1788233034 | 35° C | 44% | 1000.4 hPa | - | - | - | - |
| 1788232432 | 34.44° C | 44% | 1000.8 hPa | - | - | - | - |
| 1788231831 | 33.89° C | 45% | 1000.9 hPa | - | - | - | - |
| 1788231231 | 33.89° C | 46% | 1001.1 hPa | - | - | - | - |
| 1788230630 | 33.89° C | 44% | 1001.2 hPa | - | - | - | - |
| 1788230029 | 33.89° C | 46% | 1001.4 hPa | - | - | - | - |
| 1788229428 | 35° C | 44% | 1001.5 hPa | - | - | - | - |
* Rain since midnight (hover to see other rain measurements)
** Current wind speed in m/s (hover to see current wind gust speed)